Home > Weather > Landeck > Past weeks

Flag for Austria Weather for the Past 2 Weeks in Landeck, Tyrol, Austria

Now
36 °F

Chilly.


Feels Like: 33 °F
Forecast: 19 / 42 °F
Wind: 3 mph from South

Location: Landeck

Current Time: Feb 11, 2016 at 2:37:05 PM

Latest Report: Feb 11, 2016 at 1:00 PM


Visibility: N/A

Pressure: 29.84 "Hg (27.07 "Hg at 784m altitude)

Humidity: 40%

Dew point: 13 °F

Location of LandeckLocation

Historic Weather in Landeck — Graph

°F

Landeck Temperature Yesterday

Maximum temperature yesterday: 40 °F (at 12:00 AM)
Minimum temperature yesterday: 31 °F (at 9:00 AM)
Average temperature yesterday: 35 °F

High & Low Weather Summary for the Past Weeks

 TemperatureHumidityPressure
High55 °F (Feb 9, 12:00 PM)96% (Feb 5, 7:00 AM)30.53 "Hg (Feb 5, 7:00 AM)
Low24 °F (Feb 11, 8:00 AM)30% (Feb 9, 12:00 PM)29.29 "Hg (Feb 9, 8:00 PM)
Average40 °F69%30.09 "Hg
* Reported Jan 27 1:00 PM — Feb 11 1:00 PM, Landeck, Weather by CustomWeather, © 2016

Note: Actual official high and low records may vary slightly from our data, if they occured in-between our weather recording intervals... More about our weather records

Advertising

Landeck Weather History for the Previous 24 Hours

 ConditionsComfort  
Time TempWeatherWind HumidityBarometerVisibility
1:00 PM
Thu, Feb 11
36 °FChilly.3 mph40%29.84 "HgN/A
12:00 PM33 °FChilly.5 mph45%29.88 "HgN/A
11:00 AM31 °FChilly.3 mph48%29.92 "HgN/A
10:00 AM28 °FChilly.7 mph56%29.94 "HgN/A
9:00 AM25 °FChilly.5 mph60%29.96 "HgN/A
8:00 AM24 °FCold.2 mph68%29.96 "HgN/A
7:00 AM26 °FChilly.2 mph64%29.93 "HgN/A
6:00 AM26 °FChilly.3 mph67%29.93 "HgN/A
5:00 AM27 °FChilly.2 mph66%29.92 "HgN/A
9:00 PM
Wed, Feb 10
34 °FChilly.3 mph58%29.74 "HgN/A
8:00 PM34 °FChilly.2 mph59%29.73 "HgN/A
7:00 PM33 °FChilly.2 mph66%29.72 "HgN/A
6:00 PM33 °FChilly.2 mph67%29.69 "HgN/A
5:00 PM34 °FChilly.2 mph67%29.65 "HgN/A
4:00 PM35 °FChilly.2 mph62%29.62 "HgN/A
3:00 PM37 °FChilly.2 mph49%29.58 "HgN/A
2:00 PM37 °FSprinkles. Cloudy.2 mph51%29.58 "HgN/A
Weather by CustomWeather, © 2016

See weather overviewHow to use our weather pages